Погода в Аинази

Погода в Аинази : погода сейчас, прогноз погоды и архив. Всё, что Вы хотите узнать о погоде в Аинази!

Поиск расширенной информации на нашем сайте:

Другие новости

Новости СМИ2

Главная страница сайта

Новости сайта

03.07.2017

Напоминаем, что на нашем специализированном сайте Метеоцентр.Азия вы можете получить высокодетализированные автоматические прогнозы погоды по пунктам России, СНГ и мира в авиационном формате (включающие направление и скорость ветра, видимость, явления погоды, количество и форму облачности, нижнюю и верхнюю границу облачности).

Рекомендуем: по низкой цене: продажа офиса в башне Город Столиц на пресненской набережной на выгодных условиях

Погода в Аинази - сегодня

Время (UTC), дата Ветер
(°,м/с) 
Видим.   Явления Облачность Т
(°С)
Тd
(°С)
f(%) Тe
(°С)
Pmin
(гПа)
dP
(гПа)
Po
(мм)
O2
(г/м3)
Тmin Tmax R s Состояние
почвы
09 25.01.18 190 (Ю) 9-14  н/о    н/о 
+3.1 +2.6 97 -1  1005.2  753  300           
21 26.01.18 180 (Ю) 4-6  н/о    н/о 
+1.8 +1.5 98 1020  764  306           
03 27.01.18 190 (Ю) 4-6  н/о    н/о 
+1.7 +1.5 99 1020.6  -0.1  765  306           
18 27.01.18 250 (З) 5-9  н/о    н/о 
+1.7 +0.6 92 -1  1022.3  0.6  766  307           
21 27.01.18 230 (ЮЗ) 4-7  н/о    н/о 
+1.7 -0.4 86 1022.3  766  307           
06 28.01.18 160 (Ю) 5-7  н/о    н/о 
+1.1 +0.2 94 -2  1015.1  -3.9  761  305           
15 28.01.18 170 (Ю) 4-7  н/о    н/о 
+0.5 +0.1 97 -2  1005.1  -2.8  753  303           
03 29.01.18 350 (С) 2-2  н/о    н/о 
+1.1 +1.1 100 1002.5  751  301           
21 29.01.18 100 (В) 3-4  н/о    н/о 
+0.3 +0.1 99 -1  996.4  -2.5  747  300           
21 30.01.18 330 (СЗ) 5-9  н/о    н/о 
-0.8 -2.6 88 -4  1008.9  756  306           
09 31.01.18 140 (ЮВ) 1-2  н/о    н/о 
-2.6 -4.3 88 -2  1012.5  0.5  759  309           
18 01.02.18 180 (Ю) 4-6  н/о    н/о 
+1.8 +1.4 97 1000  1.6  749  300           
03 03.02.18 140 (ЮВ) 3-4  н/о    н/о 
-0.8 -1.3 96 -3  1006.8  755  305           
06 03.02.18 110 (В) 2-2  н/о    н/о 
-1.2 -1.9 95 -2  1007.2  755  306           
00 04.02.18 350 (С) 1-1  н/о    н/о 
-1.1 -3.4 84 -1  1013.8  760  308           
09 04.02.18 060 (СВ) 7-11  н/о    н/о 
-5.4 -10 70 -10  1019.6  764  315           
21 04.02.18 020 (С) 7-9  н/о    н/о 
-5.7 -8.5 81 -11  1024.7  0.7  768  317           
12 06.02.18 170 (Ю) 4-6  н/о    н/о 
-5.6 -7.3 88 -9  1010.7  -0.8  757  312           
21 06.02.18 250 (З) 3-5  н/о    н/о 
-2.6 -5.7 79 -5  1010.6  757  309           
00 07.02.18 260 (З) 4-6  н/о    н/о 
-2.6 -3.5 94 -5  1011.3  0.7  758  309           
03 07.02.18 250 (З) 5-9  н/о    н/о 
-1.8 -3.7 87 -5  1012.2  759  308           
18 07.02.18 210 (ЮЗ) 6-8  н/о    н/о 
-0.6 -2.6 86 -4  1018.9  764  309           
09 09.02.18 120 (ЮВ) 2-2  н/о    н/о 
-7.2 -8 94 -9  1023.2  0.5  767  318           
12 09.02.18 080 (В) 3-4  н/о    н/о 
-7.6 -8.4 94 -10  1023.4  767  319           
09 22.02.18 140 (ЮВ) 1-1  н/о    н/о 
-10.1 -12.5 83 -10  1032.3  774  325           
Время (UTC), дата Ветер
(°,м/с) 
Видим.   Явления Облачность Т
(°С)
Тd
(°С)
f(%) Тe
(°С)
Pmin
(гПа)
dP
(гПа)
Po
(мм)
O2
(г/м3)
Тmin Tmax R s Состояние
почвы

Для получения пояснительной информации подведите курсор к названию столбца.

ПОГОДА в Аинази - архив

Всё, что Вы хотите узнать о погоде в Аинази - удобно и подробно!

Выберите нужную дату (начиная с 1 января 2015* года) и нажмите кнопку "Найти".
Будут отображены архивные сводки погоды по пункту Аинази, начиная с указанной даты.


Отображать данные в формате CSV (для использования в таблицах Excel)


Внимание! Наш архив погоды предназначен исключительно для личного некоммерческого использования в познавательных целях. Если Вам необходимы официальные справки о состоянии погоды (для производственных, юридических, коммерческих и т.п. целей), обращайтесь в органы Росгидромета.

*Примечание: данная дата относится к архиву по метеостанциям СССР (Россия, СНГ, Балтия).
Архив по метеостанциям Зарубежной Европы и Азии (кроме Китая) хранится 10 дней, по другим регионам земного шара (Китай, Африка, Америка, Австралия, Океания) - 1 день.

Аинази - район местоположения метеостанции


Название, широта, долгота, высота метеостанции:
Аинази 57.9°ш. 24.4°д. 5 м над ур. моря [Латвия]

Дополнительная информация

В oтличие oт бoльшинства пoгoдных сайтoв мы публикуем пoдрoбную метеoинфoрмацию в детальнoм прoфессиoнальнoм фoрмате.

Характеристики температуры и влажнoсти вoздуха измеряются на высoте 2 м в тени вдали oт зданий и деревьев.
Скoрoсть ветра измеряется на высoте 10 м (на урoвне рoста челoвека скoрoсть ветра ниже в 1.5-2 раза). Если метеoстанция нахoдится в гoрoде или в лесу, тo скoрoсть ветра занижена на 2-4 м/с пo сравнению с oткрытым местoм. Скoрoсть ветра над акватoриями крупных рек и oзёр, а также на вершинах хoлмoв на 2-5 м/с выше, чем в oбычных услoвиях.
Атмoсфернoе давление в разных тoчках местнoсти мoжет значительнo oтличаться oт давления на метеoстанции, в зависимoсти oт услoвий рельефа (при пoдъёме на 10 м давление пoнижается примернo на 1 мм рт.ст.).